[[{"header":{"parameterUnit":"m.s-1","parameterCategory":1,"la1":30.2991,"la2":30.254,"lo1":-89.0895,"lo2":-89.0444,"dy":0.0017,"dx":0.0017,"nx":28,"ny":28,"refTime":"2023-09-11T09:00:00:Z","depth":0,"parameterNumber":2,"parameterNumberName":"U-component_of_WINDS"},"data":[0,0,0,0,0,0,0,0,0,0,0,0,0,0,0,0,0,0,0,0,0,0,0,0,0,0,0,0,0,0,0,0,0,0,0,0,0,0,0,0,0,0,0,0,0,0,0,0,0,0,0,0,0,0,0,0,0,0,-0.778,-0.7779,0,-0.7761,-0.7761,-0.7761,-0.7759,-0.7759,-0.776,-0.776,-0.7741,-0.774,-0.7739,0,0,0,0,0,0,0,0,0,0,0,0,0,-0.7812,-0.7811,-0.778,-0.7779,-0.7779,-0.7761,-0.7761,-0.7761,-0.7759,-0.7759,-0.776,-0.776,-0.7741,-0.774,-0.7739,0,0,0,0,0,0,0,0,0,0,0,0,0,-0.7796,-0.7811,-0.778,-0.7776,-0.7776,-0.7761,-0.7761,-0.7761,-0.7759,-0.776,-0.776,-0.776,-0.7741,-0.774,-0.7739,-0.7727,0,0,-0.7736,-0.7736,0,0,0,0,0,0,0,0,-0.7797,-0.7795,-0.7777,-0.7776,-0.7776,-0.7763,-0.7765,-0.7749,-0.7759,-0.7765,-0.776,-0.776,-0.7748,-0.7746,-0.7742,-0.7726,-0.7725,-0.7736,-0.7735,-0.7735,-0.7734,0,0,0,0,0,0,0,-0.7798,-0.7796,-0.7772,-0.7777,-0.7776,-0.7775,-0.7773,-0.7762,-0.7755,-0.7765,-0.7765,-0.7763,-0.7748,-0.7743,-0.7742,-0.7725,-0.7736,-0.7735,-0.7734,-0.7734,-0.7695,-0.7695,0,0,0,0,0,0,-0.78,-0.7797,-0.7773,-0.7772,-0.7787,-0.7774,-0.7772,-0.7767,-0.7755,-0.7754,-0.7762,-0.7763,-0.7745,-0.7743,-0.7741,-0.7724,-0.7735,-0.7734,-0.7733,-0.7695,-0.7695,-0.7695,0,0,0,0,0,0,-0.7801,-0.7798,-0.7774,-0.7784,-0.7781,-0.7773,-0.7767,-0.7766,-0.7762,-0.7753,-0.7752,-0.7759,-0.7745,-0.7742,-0.773,-0.7724,-0.7733,-0.7732,-0.7696,-0.7695,-0.7695,-0.7692,0,0,0,0,0,0,-0.7802,-0.7798,-0.7794,-0.7784,-0.778,-0.7763,-0.7767,-0.7766,-0.776,-0.776,-0.775,-0.7749,-0.7745,-0.7731,-0.7729,-0.7723,-0.7732,-0.7696,-0.7696,-0.7695,-0.7693,-0.7691,-0.769,0,0,0,0,0,-0.7803,-0.7794,-0.7794,-0.7791,-0.7775,-0.7763,-0.7761,-0.7757,-0.776,-0.7755,-0.7749,-0.7749,-0.7725,-0.773,-0.7727,-0.7721,-0.7697,-0.7696,-0.7695,-0.7693,-0.7692,-0.769,0,0,0,0,0,0,-0.7804,-0.7793,-0.7792,-0.778,-0.7773,-0.7763,-0.7757,-0.7756,-0.7747,-0.7748,-0.7743,-0.774,-0.7728,-0.7723,-0.7729,-0.7707,-0.7711,-0.7709,-0.7711,-0.7709,-0.7708,-0.7709,-0.7731,0,0,0,0,0,-0.7803,-0.7794,-0.7785,-0.7775,-0.7771,-0.7765,-0.7759,-0.7757,-0.7749,-0.7745,-0.7739,-0.7731,-0.7721,-0.7715,-0.7706,-0.7692,-0.7689,-0.7685,-0.7684,-0.7683,-0.7682,-0.7673,-0.7671,-0.7692,-0.7692,-0.7692,0,0,-0.78,-0.7793,-0.7788,-0.7775,-0.7769,-0.776,-0.7762,-0.7753,-0.7745,-0.7744,-0.7731,-0.7726,-0.7716,-0.7703,-0.7696,-0.7698,-0.7675,-0.7682,-0.7682,-0.7681,-0.7672,-0.767,-0.7668,-0.7691,-0.7691,-0.7691,0,0,-0.7791,-0.7785,-0.7776,-0.7769,-0.7759,-0.7755,-0.7752,-0.7742,-0.7739,-0.7726,-0.7724,-0.7715,-0.7699,-0.7692,-0.7686,-0.7671,-0.767,-0.7668,-0.7663,-0.7653,-0.7652,-0.765,-0.7644,-0.7642,-0.7667,-0.7667,-0.7667,0,-0.7789,-0.7776,-0.7771,-0.7761,-0.7755,-0.7753,-0.7742,-0.7736,-0.7724,-0.7719,-0.7721,-0.77,-0.7693,-0.7677,-0.7673,-0.7669,-0.7665,-0.767,-0.7652,-0.7651,-0.7649,-0.7643,-0.7641,-0.7667,-0.7667,-0.7667,-0.7667,0,-0.7773,-0.7764,-0.7757,-0.7745,-0.7738,-0.7728,-0.7721,-0.7714,-0.7712,-0.7706,-0.7692,-0.7684,-0.7672,-0.7668,-0.7666,-0.7651,-0.7652,-0.7654,-0.7658,-0.7647,-0.7641,-0.7639,-0.7667,-0.7667,-0.7667,-0.7667,0,0,-0.7766,-0.775,-0.7747,-0.7741,-0.7729,-0.7721,-0.771,-0.7698,-0.7692,-0.7683,-0.7673,-0.7659,-0.7659,-0.7652,-0.7649,-0.7641,-0.7628,-0.7643,-0.7643,-0.764,-0.761,-0.7609,-0.7606,-0.7628,-0.7627,-0.7627,-0.761,0,-0.7755,-0.7736,-0.773,-0.7714,-0.7704,-0.7701,-0.7691,-0.7682,-0.7676,-0.7667,-0.766,-0.7649,-0.7651,-0.7647,-0.7639,-0.7632,-0.7622,-0.7633,-0.7618,-0.7617,-0.762,-0.7603,-0.7603,-0.7587,-0.7608,-0.7608,-0.7607,0,-0.774,-0.773,-0.7712,-0.77,-0.7695,-0.7687,-0.7675,-0.7666,-0.7655,-0.7651,-0.7643,-0.7639,-0.7627,-0.7631,-0.7613,-0.762,-0.7613,-0.7609,-0.7608,-0.7606,-0.7612,-0.7601,-0.7583,-0.758,-0.7604,-0.7604,-0.7605,0,-0.7735,-0.7717,-0.7704,-0.7698,-0.7684,-0.7678,-0.7671,-0.7661,-0.7653,-0.7642,-0.7637,-0.7625,-0.7618,-0.7608,-0.7601,-0.7606,-0.7583,-0.7588,-0.7579,-0.7579,-0.7575,-0.7575,-0.7555,-0.7571,-0.7571,-0.7571,-0.7571,0,-0.7723,-0.7712,-0.7701,-0.7693,-0.768,-0.7673,-0.7661,-0.7654,-0.7644,-0.7634,-0.763,-0.7621,-0.7612,-0.7601,-0.7595,-0.758,-0.7577,-0.7573,-0.7572,-0.7573,-0.7574,-0.7569,-0.757,-0.757,-0.757,-0.7571,-0.7571,0,-0.7715,-0.7708,-0.7693,-0.768,-0.7676,-0.7667,-0.7656,-0.7647,-0.764,-0.7627,-0.7624,-0.7613,-0.76,-0.7592,-0.7575,-0.7571,-0.7554,-0.7553,-0.7557,-0.7557,-0.7548,-0.7549,-0.7524,-0.752,-0.7539,-0.7539,-0.7539,0,-0.7708,-0.77,-0.7685,-0.7678,-0.7671,-0.766,-0.7652,-0.7645,-0.7636,-0.7622,-0.7615,-0.7601,-0.7589,-0.7568,-0.7558,-0.7544,-0.7543,-0.7535,-0.7541,-0.7542,-0.7542,-0.7542,-0.7541,-0.7534,-0.7534,-0.7534,-0.7534,0,-0.7696,-0.7692,-0.7681,-0.7668,-0.7659,-0.7648,-0.7638,-0.7632,-0.7622,-0.7613,-0.7599,-0.759,-0.7572,-0.7557,-0.7543,-0.7535,-0.7532,-0.7532,-0.7529,-0.753,-0.7533,-0.753,-0.7554,-0.7533,-0.7533,-0.7533,-0.7533,-0.7533,-0.7688,-0.768,-0.7668,-0.7655,-0.7646,-0.7636,-0.7627,-0.7618,-0.7606,-0.7591,-0.7587,-0.7572,-0.7559,-0.7539,-0.7531,-0.7518,-0.7519,-0.7515,-0.7514,-0.7513,-0.7513,-0.7535,-0.7515,-0.7515,-0.7515,-0.7515,-0.7515,0,-0.7675,-0.7667,-0.7655,-0.764,-0.763,-0.7628,-0.7615,-0.7606,-0.7593,-0.7582,-0.757,-0.7553,-0.7538,-0.7527,-0.7512,-0.7503,-0.7502,-0.75,-0.75,-0.7498,-0.7513,-0.7516,-0.7501,-0.7501,-0.7501,-0.7501,-0.7501,-0.7501,-0.7667,-0.7653,-0.7647,-0.7627,-0.7618,-0.7604,-0.7596,-0.7586,-0.7577,-0.7558,-0.7546,-0.7538,-0.7526,-0.751,-0.7496,-0.7493,-0.7487,-0.7485,-0.7481,-0.7496,-0.7497,-0.7499,-0.7502,-0.7484,-0.7484,-0.7468,-0.7467,-0.7467]},{"header":{"parameterUnit":"m.s-1","parameterCategory":1,"la1":30.2991,"la2":30.254,"lo1":-89.0895,"lo2":-89.0444,"dy":0.0017,"dx":0.0017,"nx":28,"ny":28,"refTime":"2023-09-11T09:00:00:Z","depth":0,"parameterNumber":3,"parameterNumberName":"V-component_of_WINDS"},"data":[0,0,0,0,0,0,0,0,0,0,0,0,0,0,0,0,0,0,0,0,0,0,0,0,0,0,0,0,0,0,0,0,0,0,0,0,0,0,0,0,0,0,0,0,0,0,0,0,0,0,0,0,0,0,0,0,0,0,-1.296,-1.2962,0,-1.3159,-1.3161,-1.3163,-1.3297,-1.3298,-1.3299,-1.33,-1.3497,-1.3501,-1.3506,0,0,0,0,0,0,0,0,0,0,0,0,0,-1.2691,-1.2695,-1.2959,-1.2962,-1.2964,-1.3158,-1.3161,-1.3164,-1.3297,-1.3298,-1.3299,-1.33,-1.3496,-1.3501,-1.3506,0,0,0,0,0,0,0,0,0,0,0,0,0,-1.284,-1.2696,-1.2959,-1.3054,-1.3065,-1.3158,-1.3161,-1.3164,-1.3296,-1.3298,-1.3299,-1.33,-1.3494,-1.35,-1.3507,-1.3519,0,0,-1.3527,-1.353,0,0,0,0,0,0,0,0,-1.2831,-1.285,-1.3038,-1.3048,-1.306,-1.3204,-1.3139,-1.3283,-1.3296,-1.3208,-1.33,-1.3301,-1.3398,-1.3413,-1.3447,-1.3528,-1.3537,-1.3527,-1.3531,-1.3534,-1.3536,0,0,0,0,0,0,0,-1.2821,-1.2842,-1.3038,-1.304,-1.3054,-1.3086,-1.3109,-1.3167,-1.3292,-1.3216,-1.3226,-1.3248,-1.3404,-1.344,-1.3452,-1.3539,-1.3527,-1.3533,-1.3537,-1.354,-1.3642,-1.3641,0,0,0,0,0,0,-1.2796,-1.2832,-1.3032,-1.3044,-1.2947,-1.3089,-1.3115,-1.3156,-1.3292,-1.3315,-1.3247,-1.3254,-1.3428,-1.3445,-1.346,-1.3484,-1.3534,-1.354,-1.3544,-1.3643,-1.3642,-1.364,0,0,0,0,0,0,-1.279,-1.2813,-1.3024,-1.2941,-1.2971,-1.3093,-1.3138,-1.316,-1.3195,-1.3316,-1.3338,-1.326,-1.343,-1.3451,-1.3504,-1.3492,-1.3543,-1.3549,-1.3645,-1.3643,-1.3641,-1.353,0,0,0,0,0,0,-1.2782,-1.281,-1.2816,-1.294,-1.2974,-1.3065,-1.3137,-1.3162,-1.3207,-1.3218,-1.3334,-1.3355,-1.3433,-1.3493,-1.351,-1.3502,-1.3554,-1.3646,-1.3644,-1.3642,-1.3535,-1.3524,-1.3515,0,0,0,0,0,-1.2771,-1.2775,-1.2816,-1.2839,-1.2985,-1.3064,-1.3084,-1.3175,-1.3206,-1.3213,-1.329,-1.3351,-1.3491,-1.3498,-1.3518,-1.3511,-1.3647,-1.3645,-1.3642,-1.3539,-1.3526,-1.3515,0,0,0,0,0,0,-1.2643,-1.2793,-1.284,-1.2884,-1.2961,-1.3087,-1.3098,-1.3158,-1.3226,-1.3233,-1.3341,-1.3366,-1.3408,-1.3466,-1.347,-1.3531,-1.3577,-1.3578,-1.3492,-1.348,-1.3471,-1.3455,-1.356,0,0,0,0,0,-1.2621,-1.2674,-1.2801,-1.2828,-1.2865,-1.2974,-1.3012,-1.3076,-1.3159,-1.3192,-1.3273,-1.335,-1.3412,-1.3449,-1.3513,-1.3545,-1.3572,-1.355,-1.354,-1.3532,-1.3531,-1.3553,-1.3545,-1.3631,-1.3632,-1.3632,0,0,-1.2573,-1.2662,-1.2688,-1.2805,-1.2872,-1.2923,-1.3001,-1.3051,-1.309,-1.3199,-1.3255,-1.3317,-1.341,-1.3453,-1.3476,-1.3502,-1.3513,-1.3528,-1.352,-1.3524,-1.3549,-1.3541,-1.3533,-1.363,-1.363,-1.363,0,0,-1.2514,-1.2586,-1.2617,-1.2683,-1.2785,-1.2859,-1.2866,-1.2984,-1.3031,-1.3089,-1.3172,-1.3219,-1.3323,-1.3386,-1.3431,-1.3399,-1.3457,-1.3416,-1.3364,-1.3384,-1.3377,-1.3371,-1.3359,-1.3353,-1.3415,-1.3415,-1.3415,0,-1.2441,-1.2524,-1.2624,-1.2672,-1.272,-1.2824,-1.2855,-1.2914,-1.303,-1.3061,-1.3089,-1.3223,-1.3292,-1.3352,-1.3344,-1.3378,-1.3389,-1.3402,-1.337,-1.3366,-1.3362,-1.3351,-1.3347,-1.3409,-1.341,-1.3411,-1.3411,0,-1.243,-1.2486,-1.2498,-1.2611,-1.2661,-1.2699,-1.2805,-1.2844,-1.2904,-1.2974,-1.3033,-1.3121,-1.3204,-1.3224,-1.3281,-1.3292,-1.3305,-1.335,-1.3398,-1.3346,-1.3338,-1.3335,-1.3401,-1.3403,-1.3405,-1.3406,0,0,-1.2292,-1.2462,-1.2465,-1.2518,-1.2639,-1.2683,-1.2727,-1.2811,-1.2842,-1.2919,-1.2957,-1.3044,-1.3088,-1.314,-1.3206,-1.3224,-1.3192,-1.3268,-1.3271,-1.325,-1.3209,-1.3173,-1.3166,-1.3233,-1.3232,-1.3232,-1.3201,0,-1.2249,-1.2335,-1.2428,-1.2481,-1.2534,-1.2635,-1.2673,-1.275,-1.2818,-1.2872,-1.2946,-1.3006,-1.3059,-1.3091,-1.3113,-1.3191,-1.3185,-1.3195,-1.3268,-1.3269,-1.324,-1.3163,-1.3125,-1.309,-1.3198,-1.3198,-1.3197,0,-1.2211,-1.2286,-1.2344,-1.2463,-1.2488,-1.2521,-1.2606,-1.2657,-1.2747,-1.2796,-1.2854,-1.2926,-1.2977,-1.302,-1.309,-1.3095,-1.3131,-1.3174,-1.3175,-1.3184,-1.3229,-1.3168,-1.3082,-1.3076,-1.3194,-1.3194,-1.3194,0,-1.2103,-1.2219,-1.227,-1.2312,-1.2451,-1.2472,-1.253,-1.2623,-1.2668,-1.2742,-1.2772,-1.285,-1.2893,-1.2951,-1.3042,-1.3065,-1.3102,-1.3153,-1.3142,-1.314,-1.3144,-1.3142,-1.306,-1.3168,-1.3169,-1.3169,-1.3169,0,-1.2046,-1.2077,-1.2224,-1.2254,-1.2293,-1.24,-1.2434,-1.2502,-1.2583,-1.2628,-1.272,-1.2759,-1.2878,-1.2931,-1.3003,-1.305,-1.3068,-1.3108,-1.3126,-1.3099,-1.3093,-1.3122,-1.3126,-1.3167,-1.3168,-1.3168,-1.3168,0,-1.1931,-1.2031,-1.2092,-1.222,-1.2253,-1.2276,-1.2385,-1.2418,-1.2492,-1.2548,-1.2567,-1.2682,-1.275,-1.2848,-1.2944,-1.2993,-1.3029,-1.3059,-1.2999,-1.3009,-1.2993,-1.2993,-1.2926,-1.2922,-1.3033,-1.3031,-1.303,0,-1.1886,-1.1914,-1.2046,-1.2084,-1.214,-1.2199,-1.2247,-1.2354,-1.2399,-1.2506,-1.2526,-1.2602,-1.2668,-1.2772,-1.2863,-1.2938,-1.297,-1.2942,-1.2981,-1.2954,-1.2969,-1.2965,-1.2968,-1.2931,-1.2929,-1.2928,-1.2927,0,-1.1797,-1.1846,-1.1912,-1.1996,-1.2051,-1.2121,-1.2196,-1.2221,-1.2344,-1.239,-1.2462,-1.2514,-1.2615,-1.2688,-1.2776,-1.2835,-1.29,-1.2914,-1.2915,-1.2887,-1.285,-1.2869,-1.2971,-1.2914,-1.2916,-1.2916,-1.2917,-1.2918,-1.1716,-1.1745,-1.1843,-1.1914,-1.1983,-1.2051,-1.2089,-1.2169,-1.2232,-1.2324,-1.2383,-1.2452,-1.2544,-1.2669,-1.2725,-1.278,-1.2807,-1.2809,-1.2809,-1.2807,-1.2798,-1.2843,-1.2796,-1.2797,-1.2797,-1.2798,-1.2798,0,-1.163,-1.17,-1.1764,-1.1867,-1.1923,-1.1984,-1.207,-1.2112,-1.2172,-1.2253,-1.2318,-1.2401,-1.2474,-1.2572,-1.2652,-1.2676,-1.2709,-1.2694,-1.2692,-1.2705,-1.2769,-1.276,-1.2666,-1.2666,-1.2666,-1.2666,-1.2666,-1.2666,-1.1592,-1.1645,-1.1706,-1.1794,-1.1863,-1.1933,-1.1977,-1.2041,-1.2106,-1.2196,-1.2258,-1.2323,-1.2411,-1.2498,-1.2567,-1.2594,-1.2619,-1.2594,-1.263,-1.2688,-1.27,-1.2711,-1.2703,-1.2599,-1.2599,-1.2561,-1.256,-1.256]}]]